When you browse on this site, cookies collect data to enhance your experience and personalize the content and advertising you see.
Visit our Privacy Policy to learn more. By continuing to use the site, you agree to this use of cookies and data.

Hourly Weather Palembang

Today, 19 September, Saturday

Time Temperature Precipitation Wind Pressure Humidity
00:00 +26°C° 0 mm 1 mps 756 mmHg 86%
01:00 +26°C° 0 mm 1 mps 756 mmHg 88%
02:00 +25°C° 0 mm 1 mps 755 mmHg 90%
03:00 +25°C° 0 mm 1 mps 755 mmHg 91%
04:00 +25°C° 0 mm 1 mps 755 mmHg 93%
05:00 +26°C° 0 mm 1 mps 755 mmHg 91%
06:00 +26°C° 0 mm 1 mps 756 mmHg 90%
07:00 +27°C° 0 mm 2 mps 757 mmHg 87%
08:00 +29°C° 0 mm 2 mps 757 mmHg 78%
09:00 +31°C° 0 mm 2 mps 757 mmHg 68%
10:00 +34°C° 0 mm 2 mps 757 mmHg 59%
11:00 +35°C° 0 mm 2 mps 756 mmHg 53%
12:00 +36°C° 0 mm 2 mps 756 mmHg 48%
13:00 +37°C° 0 mm 2 mps 755 mmHg 43%
14:00 +36°C° 0 mm 1 mps 754 mmHg 45%
15:00 +35°C° 0 mm 1 mps 754 mmHg 47%
16:00 +35°C° 0 mm 1 mps 753 mmHg 49%
17:00 +33°C° 0.1 mm 1 mps 754 mmHg 57%
18:00 +32°C° 0.1 mm 2 mps 754 mmHg 65%
19:00 +30°C° 0.1 mm 2 mps 755 mmHg 72%
20:00 +29°C° 0 mm 2 mps 755 mmHg 76%
21:00 +28°C° 0 mm 2 mps 756 mmHg 80%
22:00 +28°C° 0 mm 2 mps 756 mmHg 84%
23:00 +27°C° 0 mm 1 mps 756 mmHg 86%

Tomorrow, 20 September, Sunday

Time Temperature Precipitation Wind Pressure Humidity
00:00 +27°C° 0 mm 1 mps 756 mmHg 88%
01:00 +27°C° 0 mm 1 mps 756 mmHg 90%
02:00 +27°C° 0.5 mm 1 mps 755 mmHg 92%
03:00 +26°C° 0.5 mm 1 mps 755 mmHg 93%
04:00 +26°C° 0.5 mm 1 mps 755 mmHg 95%
05:00 +27°C° 1.9 mm 1 mps 755 mmHg 93%
06:00 +27°C° 1.9 mm 1 mps 756 mmHg 91%
07:00 +27°C° 1.9 mm 1 mps 756 mmHg 89%
08:00 +28°C° 1.1 mm 2 mps 757 mmHg 88%
09:00 +28°C° 1.1 mm 2 mps 757 mmHg 88%
10:00 +28°C° 1.1 mm 2 mps 758 mmHg 87%
11:00 +28°C° 1.4 mm 2 mps 757 mmHg 88%
12:00 +28°C° 1.4 mm 2 mps 757 mmHg 89%
13:00 +28°C° 1.4 mm 1 mps 757 mmHg 89%
14:00 +27°C° 0.9 mm 1 mps 756 mmHg 91%
15:00 +27°C° 0.9 mm 1 mps 756 mmHg 93%
16:00 +26°C° 0.9 mm 1 mps 756 mmHg 95%
17:00 +26°C° 0 mm 1 mps 756 mmHg 96%
18:00 +26°C° 0 mm 1 mps 757 mmHg 96%
19:00 +26°C° 0 mm 1 mps 757 mmHg 97%
20:00 +26°C° 0 mm 1 mps 757 mmHg 97%
21:00 +25°C° 0 mm 1 mps 758 mmHg 98%
22:00 +25°C° 0 mm 1 mps 758 mmHg 98%
23:00 +25°C° 0 mm 1 mps 758 mmHg 98%

Day after tomorrow, 21 September, Monday

Time Temperature Precipitation Wind Pressure Humidity
00:00 +25°C° 0 mm 1 mps 757 mmHg 98%
01:00 +25°C° 0 mm 1 mps 757 mmHg 98%
02:00 +22°C° 0 mm 0 mps 756 mmHg 98%
03:00 +22°C° 0 mm 0 mps 756 mmHg 98%
04:00 +22°C° 0 mm 0 mps 756 mmHg 98%
05:00 +22°C° 0 mm 0 mps 757 mmHg 97%
06:00 +23°C° 0 mm 0 mps 757 mmHg 96%
07:00 +23°C° 0 mm 0 mps 758 mmHg 95%
08:00 +24°C° 0.1 mm 0 mps 758 mmHg 90%
09:00 +28°C° 0.1 mm 1 mps 758 mmHg 85%
10:00 +29°C° 0.1 mm 1 mps 758 mmHg 80%
11:00 +29°C° 0.5 mm 1 mps 758 mmHg 81%
12:00 +28°C° 0.5 mm 1 mps 757 mmHg 82%
13:00 +28°C° 0.5 mm 1 mps 756 mmHg 84%
14:00 +28°C° 0.1 mm 1 mps 756 mmHg 85%
15:00 +28°C° 0.1 mm 1 mps 756 mmHg 86%
16:00 +26°C° 0.1 mm 0 mps 755 mmHg 87%
17:00 +25°C° 0 mm 0 mps 756 mmHg 88%
18:00 +25°C° 0 mm 0 mps 757 mmHg 89%
19:00 +24°C° 0 mm 0 mps 757 mmHg 89%
20:00 +24°C° 0 mm 0 mps 758 mmHg 89%
21:00 +24°C° 0 mm 0 mps 758 mmHg 89%
22:00 +24°C° 0 mm 0 mps 759 mmHg 89%
23:00 +24°C° 0 mm 0 mps 758 mmHg 89%

22 September, Tuesday

Time Temperature Precipitation Wind Pressure Humidity
00:00 +24°C° 0 mm 0 mps 758 mmHg 89%
01:00 +24°C° 0 mm 0 mps 757 mmHg 88%
02:00 +23°C° 0 mm 0 mps 757 mmHg 89%
03:00 +23°C° 0 mm 0 mps 756 mmHg 90%
04:00 +23°C° 0 mm 0 mps 756 mmHg 91%
05:00 +23°C° 0 mm 0 mps 757 mmHg 89%
06:00 +24°C° 0 mm 0 mps 757 mmHg 88%
07:00 +24°C° 0 mm 0 mps 757 mmHg 86%
08:00 +27°C° 0 mm 0 mps 758 mmHg 76%
09:00 +30°C° 0 mm 0 mps 758 mmHg 65%
10:00 +33°C° 0 mm 0 mps 758 mmHg 54%
11:00 +34°C° 0 mm 0 mps 757 mmHg 50%
12:00 +35°C° 0 mm 0 mps 756 mmHg 46%
13:00 +36°C° 0 mm 0 mps 755 mmHg 42%
14:00 +35°C° 0 mm 0 mps 754 mmHg 44%
15:00 +34°C° 0 mm 0 mps 754 mmHg 46%
16:00 +33°C° 0 mm 0 mps 753 mmHg 48%
17:00 +34°C° 0.2 mm 1 mps 754 mmHg 56%
18:00 +32°C° 0.2 mm 1 mps 755 mmHg 63%
19:00 +30°C° 0.2 mm 2 mps 755 mmHg 71%
20:00 +29°C° 0.5 mm 2 mps 756 mmHg 76%
21:00 +28°C° 0.5 mm 1 mps 756 mmHg 82%
22:00 +27°C° 0.5 mm 1 mps 757 mmHg 87%
23:00 +27°C° 0 mm 1 mps 757 mmHg 88%

23 September, Wednesday

Time Temperature Precipitation Wind Pressure Humidity
00:00 +27°C° 0 mm 1 mps 756 mmHg 89%
01:00 +27°C° 0 mm 1 mps 756 mmHg 90%
02:00 +27°C° 0 mm 1 mps 756 mmHg 91%
03:00 +26°C° 0 mm 1 mps 756 mmHg 91%
04:00 +26°C° 0 mm 1 mps 756 mmHg 91%
05:00 +25°C° 0.1 mm 0 mps 756 mmHg 90%
06:00 +25°C° 0.1 mm 0 mps 757 mmHg 88%
07:00 +26°C° 0.1 mm 0 mps 757 mmHg 86%
08:00 +28°C° 0 mm 0 mps 757 mmHg 77%
09:00 +32°C° 0 mm 1 mps 757 mmHg 67%
10:00 +34°C° 0 mm 1 mps 757 mmHg 58%
11:00 +35°C° 0 mm 1 mps 756 mmHg 53%
12:00 +37°C° 0 mm 1 mps 755 mmHg 47%
13:00 +40°C° 0 mm 1 mps 754 mmHg 42%
14:00 +39°C° 0 mm 1 mps 754 mmHg 44%
15:00 +37°C° 0 mm 1 mps 754 mmHg 47%
16:00 +36°C° 0 mm 1 mps 754 mmHg 49%
17:00 +34°C° 0.3 mm 1 mps 754 mmHg 59%
18:00 +32°C° 0.3 mm 2 mps 755 mmHg 69%
19:00 +29°C° 0.3 mm 2 mps 756 mmHg 78%
20:00 +29°C° 0.1 mm 2 mps 756 mmHg 81%
21:00 +28°C° 0.1 mm 2 mps 757 mmHg 84%
22:00 +28°C° 0.1 mm 1 mps 757 mmHg 87%
23:00 +27°C° 0.1 mm 1 mps 757 mmHg 88%

24 September, Thursday

Time Temperature Precipitation Wind Pressure Humidity
00:00 +27°C° 0.1 mm 1 mps 757 mmHg 89%
01:00 +25°C° 0.1 mm 0 mps 756 mmHg 90%
02:00 +25°C° 0.2 mm 0 mps 756 mmHg 91%
03:00 +26°C° 0.2 mm 1 mps 756 mmHg 92%
04:00 +26°C° 0.2 mm 1 mps 756 mmHg 93%
05:00 +26°C° 0 mm 1 mps 757 mmHg 91%
06:00 +27°C° 0 mm 1 mps 757 mmHg 90%
07:00 +27°C° 0 mm 1 mps 758 mmHg 88%
08:00 +29°C° 0.4 mm 1 mps 758 mmHg 80%
09:00 +31°C° 0.4 mm 2 mps 758 mmHg 71%
10:00 +34°C° 0.4 mm 2 mps 758 mmHg 62%
11:00 +35°C° 0.1 mm 2 mps 757 mmHg 58%
12:00 +36°C° 0.1 mm 2 mps 756 mmHg 53%
13:00 +37°C° 0.1 mm 2 mps 756 mmHg 48%
14:00 +36°C° 0.1 mm 2 mps 755 mmHg 51%
15:00 +35°C° 0.1 mm 2 mps 755 mmHg 54%
16:00 +35°C° 0.1 mm 2 mps 754 mmHg 57%
17:00 +32°C° 0.3 mm 2 mps 755 mmHg 64%
18:00 +30°C° 0.3 mm 1 mps 756 mmHg 70%
19:00 +29°C° 0.3 mm 1 mps 756 mmHg 77%
20:00 +28°C° 0 mm 1 mps 757 mmHg 79%
21:00 +28°C° 0 mm 1 mps 757 mmHg 80%
22:00 +27°C° 0 mm 1 mps 758 mmHg 82%
23:00 +25°C° 0 mm 0 mps 757 mmHg 83%
Show more